This is the latest recevied weather packets stored in our database for station/object SP7QPD-1. If no packets are shown the sender has not sent any weather packets the latest 10 day(s).
| Time | Temp. | Humidity | Pressure | Rain* | Wind** | Luminosity | Snow |
|---|---|---|---|---|---|---|---|
| 1777733560 | 25° C | 36% | 1019.7 hPa | 0 mm | - | - | - |
| 1777732960 | 24.44° C | 36% | 1019.7 hPa | 0 mm | - | - | - |
| 1777732360 | 23.89° C | 37% | 1019.9 hPa | 0 mm | - | - | - |
| 1777731760 | 24.44° C | 36% | 1020 hPa | 0 mm | - | - | - |
| 1777731160 | 23.89° C | 37% | 1020 hPa | 0 mm | - | - | - |
| 1777730560 | 23.89° C | 36% | 1020.3 hPa | 0 mm | - | - | - |
| 1777729960 | 23.89° C | 37% | 1020.3 hPa | 0 mm | - | - | - |
| 1777729360 | 23.89° C | 37% | 1020.5 hPa | 0 mm | - | - | - |
| 1777728759 | 23.89° C | 37% | 1020.5 hPa | 0 mm | - | - | - |
| 1777728159 | 23.33° C | 37% | 1020.8 hPa | 0 mm | - | - | - |
| 1777727559 | 23.89° C | 37% | 1020.8 hPa | 0 mm | - | - | - |
| 1777726959 | 23.89° C | 37% | 1020.9 hPa | 0 mm | - | - | - |
| 1777726359 | 23.33° C | 37% | 1021.2 hPa | 0.51 mm | - | - | - |
| 1777725759 | 23.33° C | 38% | 1021.3 hPa | 0.51 mm | - | - | - |
| 1777725159 | 22.78° C | 37% | 1021.6 hPa | 0.51 mm | - | - | - |
| 1777724559 | 22.78° C | 38% | 1021.4 hPa | 0.51 mm | - | - | - |
| 1777723959 | 22.22° C | 39% | 1021.6 hPa | 0.51 mm | - | - | - |
| 1777723359 | 22.22° C | 39% | 1022 hPa | 0.51 mm | - | - | - |
| 1777722759 | 21.67° C | 39% | 1022 hPa | 0 mm | - | - | - |
| 1777722159 | 21.67° C | 39% | 1022.1 hPa | 0 mm | - | - | - |
| 1777721558 | 21.67° C | 39% | 1022.4 hPa | 0 mm | - | - | - |
| 1777720958 | 21.67° C | 39% | 1022.2 hPa | 0 mm | - | - | - |
| 1777720358 | 21.67° C | 39% | 1022.4 hPa | 0 mm | - | - | - |
| 1777719758 | 21.11° C | 40% | 1022.5 hPa | 0 mm | - | - | - |
| 1777719158 | 21.11° C | 40% | 1022.7 hPa | 0 mm | - | - | - |
* Rain latest hour (hover to see other rain measurements)
** Current wind speed in m/s (hover to see current wind gust speed)